Home > Time Zones > World Clock > Weather > Iran > Tehran > Past weeks

Flag for Iran Weather past 2 weeks in Tehran, Iran

Now
64 °F

Passing clouds.


Feels Like: 64 °F
Forecast: 69 / 84 °F
Wind: 9 mph from West

Location: Tehran-Mehrabad

Current Time: Sep 2, 2015 at 9:00:07 AM

Latest Report: Sep 2, 2015 at 8:00 AM


Visibility: N/A

Pressure: 30.04 "Hg (26.16 "Hg at 1179m altitude)

Humidity: 64%

Dew point: 52 °F

Location of TehranLocation

Historic Weather in Tehran — Graph

°F

Tehran temperature yesterday

Maximum temperature yesterday: 90 °F (at 4:30 PM)
Minimum temperature yesterday: 73 °F (at 10:30 PM)
Average temperature yesterday: 81 °F

Past Weeks' High & Low Weather Summary

 TemperatureHumidityPressure
High102 °F (Aug 18, 2:30 PM)68% (Sep 2, 3:00 AM)30.12 "Hg (Sep 2, 3:00 AM)
Low64 °F (Sep 2, 3:00 AM)6% (Aug 18, 3:30 PM)29.71 "Hg (Aug 24, 5:30 PM)
Average85 °F26%29.95 "Hg
* Reported Aug 18 7:30 AM — Sep 2 7:30 AM, Tehran, Weather by CustomWeather, © 2015

Note: Actual official high and low records may vary slightly from our data, if they occured in-between our weather recording intervals... More about our weather records

Advertising

Tehran weather history for previous 24 hours

 ConditionsComfort  
Time TempWeatherWind HumidityBarometerVisibility
7:30 AM
Wed, Sep 2
66 °FPassing clouds.9 mph60%30.04 "HgN/A
7:00 AM66 °FPassing clouds.9 mph60%30.01 "HgN/A
6:30 AM64 °FPassing clouds.9 mph68%30.01 "HgN/A
6:00 AM66 °FPassing clouds.9 mph52%30.01 "HgN/A
5:30 AM64 °FPassing clouds.12 mph68%30.01 "HgN/A
5:00 AM64 °FPassing clouds.12 mph68%30.01 "HgN/A
4:30 AM64 °FPartly cloudy.12 mph68%30.01 "HgN/A
4:00 AM64 °FPartly cloudy.12 mph68%30.01 "Hg5 mi
3:30 AM64 °FPassing clouds.14 mph68%30.01 "Hg5 mi
3:00 AM64 °FPassing clouds.14 mph68%30.01 "Hg5 mi
2:00 AM68 °FPartly cloudy.14 mph64%30.01 "Hg5 mi
1:30 AM70 °FThunderstorms. Partly cloudy.7 mph60%30.01 "Hg4 mi
1:00 AM73 °FPartly cloudy.14 mph44%29.98 "Hg5 mi
12:30 AM73 °FSprinkles. Partly cloudy.12 mph41%29.98 "Hg5 mi
12:00 AM73 °FThunderstorms. Partly cloudy.18 mph41%29.98 "Hg5 mi
11:30 PM
Tue, Sep 1
75 °FPartly cloudy.16 mph39%29.98 "Hg5 mi
11:00 PM73 °FPassing clouds.16 mph44%29.95 "Hg5 mi
10:30 PM73 °FPassing clouds.18 mph44%29.92 "Hg5 mi
10:00 PM75 °FPassing clouds.18 mph41%29.92 "Hg5 mi
9:30 PM75 °FPassing clouds.18 mph44%29.92 "Hg5 mi
9:00 PM77 °FPassing clouds.18 mph39%29.92 "Hg4 mi
8:30 PM79 °FPassing clouds.16 mph37%29.89 "Hg4 mi
8:00 PM81 °FSandstorm.14 mph32%29.89 "Hg1 mi
7:30 PM82 °FSandstorm.16 mph32%29.89 "Hg2 mi
7:00 PM88 °FScattered clouds.16 mph17%29.86 "Hg5 mi
6:30 PM88 °FScattered clouds.9 mph17%29.86 "HgN/A
6:00 PM88 °FScattered clouds.12 mph17%29.86 "HgN/A
5:30 PM90 °FScattered clouds.9 mph15%29.86 "HgN/A
5:00 PM88 °FScattered clouds.7 mph15%29.86 "HgN/A
4:30 PM90 °FScattered clouds.12 mph15%29.86 "HgN/A
4:00 PM88 °FScattered clouds.7 mph17%29.86 "HgN/A
3:30 PM88 °FPassing clouds.9 mph17%29.86 "HgN/A
3:00 PM88 °FPassing clouds.12 mph18%29.86 "HgN/A
2:30 PM88 °FPassing clouds.9 mph19%29.89 "HgN/A
2:00 PM86 °FPassing clouds.12 mph20%29.89 "HgN/A
1:30 PM84 °FPassing clouds.9 mph25%29.92 "HgN/A
1:00 PM84 °FScattered clouds.7 mph23%29.92 "HgN/A
12:30 PM84 °FScattered clouds.14 mph23%29.92 "HgN/A
12:00 PM84 °FScattered clouds.7 mph23%29.95 "HgN/A
11:30 AM82 °FBroken clouds.5 mph23%29.95 "HgN/A
11:00 AM82 °FThunderstorms. Broken clouds.9 mph32%29.95 "HgN/A
10:30 AM82 °FSprinkles. Broken clouds.5 mph23%29.98 "HgN/A
10:00 AM81 °FScattered clouds.7 mph24%29.98 "HgN/A
9:30 AM79 °FPassing clouds.9 mph28%29.98 "HgN/A
9:00 AM77 °FScattered clouds.12 mph30%29.98 "HgN/A
Weather by CustomWeather, © 2015

See weather overviewHow to use our weather pages